Tracking 19909 objects as of 21-Oct-2019
HD Live streaming from Space Station
objects crossing your sky now

COSMOS 1759

Track COSMOS 1759 now!
10-day predictions
COSMOS 1759 is classified as:


NORAD ID: 16798
Int'l Code: 1986-047A
Perigee: 971.2 km
Apogee: 1,006.7 km
Inclination: 82.9 °
Period: 104.7 minutes
Semi major axis: 7359 km
RCS: 2.2129 m2 (large)
Launch date: June 18, 1986
Source: Commonwealth of Independent States (former USSR) (CIS)
Launch site: PLESETSK MISSILE AND SPACE COMPLEX (PKMTR)
aabbcc
Your satellite tracking list
Your tracking list is empty




NASA's NSSDC Master Catalog

Two Line Element Set (TLE):
1 16798U 86047A   19294.14484358  .00000025  00000-0  10545-4 0  9994
2 16798  82.9240 195.0636 0024093 189.6563 326.5485 13.74961738672843
Source of the keplerian elements: AFSPC